Tracking 19637 objects as of 18-Apr-2019
HD Live streaming from Space Station
objects crossing your sky now

COSMOS 1823 DEB

Track COSMOS 1823 DEB now!
10-day predictions


NORAD ID: 18746
Int'l Code: 1987-020Z
Perigee: 1,319.4 km
Apogee: 1,405.0 km
Inclination: 73.5 °
Period: 112.8 minutes
Semi major axis: 7733 km
RCS: 0.017 m2 (small)
Launch date: February 20, 1987
Source: Commonwealth of Independent States (former USSR) (CIS)
Launch site: PLESETSK MISSILE AND SPACE COMPLEX (PKMTR)

Note: This is SATELLITE DEBRIS
aabbcc
Your satellite tracking list
Your tracking list is empty




NASA's NSSDC Master Catalog

Two Line Element Set (TLE):
1 18746U 87020Z   19107.93538316 +.00001484 +00000-0 +68836-2 0  9999
2 18746 073.4909 074.3978 0055350 285.8192 143.8987 12.76631669430959
Source of the keplerian elements: AFSPC